Time,TemperatureF,DewpointF,PressureIn,WindDirection,WindDirectionDegrees,WindSpeedMPH,WindSpeedGustMPH,Humidity,HourlyPrecipIn,Conditions,Clouds,dailyrainin,SoftwareType,DateUTC
2013-11-05 00:00:00,32.1,29.8,30.16,West,270,0.0,0.0,91,0.00,,,0.00,VWS V14.01,2013-11-05 06:00:00,
2013-11-05 00:30:00,31.6,29.3,30.17,West,270,0.0,0.0,91,0.00,,,0.00,VWS V14.01,2013-11-05 06:30:00,
2013-11-05 01:00:00,31.1,28.8,30.17,West,270,0.0,1.0,91,0.00,,,0.00,VWS V14.01,2013-11-05 07:00:00,
2013-11-05 01:30:00,30.6,28.3,30.17,West,270,0.0,0.0,91,0.00,,,0.00,VWS V14.01,2013-11-05 07:30:00,
2013-11-05 02:00:00,30.1,27.8,30.18,West,270,0.0,0.0,91,0.00,,,0.00,VWS V14.01,2013-11-05 08:00:00,
2013-11-05 02:30:00,29.7,27.4,30.18,West,270,0.0,0.0,91,0.00,,,0.00,VWS V14.01,2013-11-05 08:30:00,
2013-11-05 03:00:00,29.3,27.0,30.18,West,270,0.0,0.0,91,0.00,,,0.00,VWS V14.01,2013-11-05 09:00:00,
2013-11-05 03:30:00,28.9,26.6,30.18,West,270,0.0,0.0,91,0.00,,,0.00,VWS V14.01,2013-11-05 09:30:00,
2013-11-05 04:00:00,28.4,26.1,30.19,West,270,0.0,0.0,91,0.00,,,0.00,VWS V14.01,2013-11-05 10:00:00,
2013-11-05 04:30:00,28.1,25.8,30.19,West,270,0.0,0.0,91,0.00,,,0.00,VWS V14.01,2013-11-05 10:30:00,
2013-11-05 05:00:00,27.9,25.6,30.21,West,270,0.0,1.0,91,0.00,,,0.00,VWS V14.01,2013-11-05 11:00:00,
2013-11-05 05:53:00,28.4,25.9,30.23,West,260,0.0,0.0,90,0.00,,,0.00,VWS V14.01,2013-11-05 11:53:00,
2013-11-05 05:58:00,28.5,26.0,30.23,WSW,251,0.0,3.0,90,0.00,,,0.00,VWS V14.01,2013-11-05 11:58:00,
2013-11-05 06:03:00,28.5,26.0,30.23,West,268,0.0,2.0,90,0.00,,,0.00,VWS V14.01,2013-11-05 12:03:00,
2013-11-05 06:08:00,28.6,26.0,30.23,West,267,0.0,2.0,90,0.00,,,0.00,VWS V14.01,2013-11-05 12:08:00,
2013-11-05 06:13:00,28.5,26.0,30.23,West,268,0.0,2.0,90,0.00,,,0.00,VWS V14.01,2013-11-05 12:13:00,
2013-11-05 06:18:00,28.5,26.0,30.22,West,268,0.0,2.0,90,0.00,,,0.00,VWS V14.01,2013-11-05 12:18:00,
2013-11-05 06:23:00,28.5,26.0,30.22,West,268,0.0,2.0,90,0.00,,,0.00,VWS V14.01,2013-11-05 12:23:00,
2013-11-05 06:28:00,28.5,26.0,30.22,West,267,0.0,2.0,90,0.00,,,0.00,VWS V14.01,2013-11-05 12:28:00,
2013-11-05 06:33:00,28.5,26.0,30.22,West,268,0.0,0.0,90,0.00,,,0.00,VWS V14.01,2013-11-05 12:33:00,
2013-11-05 06:38:00,28.4,25.9,30.22,West,268,0.0,1.0,90,0.00,,,0.00,VWS V14.01,2013-11-05 12:38:00,
2013-11-05 06:43:00,28.4,25.9,30.22,West,268,0.0,1.0,90,0.00,,,0.00,VWS V14.01,2013-11-05 12:43:00,
2013-11-05 06:48:00,28.4,25.9,30.22,West,268,0.0,1.0,90,0.00,,,0.00,VWS V14.01,2013-11-05 12:48:00,
2013-11-05 06:53:00,28.4,25.9,30.22,West,268,0.0,1.0,90,0.00,,,0.00,VWS V14.01,2013-11-05 12:53:00,
2013-11-05 06:58:00,28.5,26.0,30.22,West,268,0.0,1.0,90,0.00,,,0.00,VWS V14.01,2013-11-05 12:58:00,
2013-11-05 07:03:00,28.5,26.0,30.22,West,268,0.0,0.0,90,0.00,,,0.00,VWS V14.01,2013-11-05 13:03:00,
2013-11-05 07:08:00,28.6,26.0,30.22,West,268,0.0,0.0,90,0.00,,,0.00,VWS V14.01,2013-11-05 13:08:00,
2013-11-05 07:13:00,28.6,26.0,30.22,West,268,0.0,0.0,90,0.00,,,0.00,VWS V14.01,2013-11-05 13:13:00,
2013-11-05 07:18:00,28.7,26.1,30.22,West,268,0.0,0.0,90,0.00,,,0.00,VWS V14.01,2013-11-05 13:18:00,
2013-11-05 07:23:00,28.8,26.0,30.22,West,268,0.0,0.0,89,0.00,,,0.00,VWS V14.01,2013-11-05 13:23:00,
2013-11-05 07:28:00,28.8,26.2,30.22,West,268,0.0,0.0,90,0.00,,,0.00,VWS V14.01,2013-11-05 13:28:00,
2013-11-05 07:34:00,28.8,26.2,30.22,West,268,0.0,0.0,90,0.00,,,0.00,VWS V14.01,2013-11-05 13:34:00,
2013-11-05 07:39:00,28.8,26.2,30.22,West,268,0.0,0.0,90,0.00,,,0.00,VWS V14.01,2013-11-05 13:39:00,
2013-11-05 07:44:00,28.9,26.3,30.22,West,268,0.0,0.0,90,0.00,,,0.00,VWS V14.01,2013-11-05 13:44:00,
2013-11-05 07:49:00,29.0,26.4,30.22,West,268,0.0,0.0,90,0.00,,,0.00,VWS V14.01,2013-11-05 13:49:00,
2013-11-05 07:54:00,29.1,26.3,30.22,West,268,0.0,0.0,89,0.00,,,0.00,VWS V14.01,2013-11-05 13:54:00,
2013-11-05 07:59:00,29.2,26.4,30.22,West,268,0.0,0.0,89,0.00,,,0.00,VWS V14.01,2013-11-05 13:59:00,
2013-11-05 08:04:00,29.3,26.5,30.22,West,268,0.0,0.0,89,0.00,,,0.00,VWS V14.01,2013-11-05 14:04:00,
2013-11-05 08:09:00,29.4,26.6,30.22,West,268,0.0,0.0,89,0.00,,,0.00,VWS V14.01,2013-11-05 14:09:00,
2013-11-05 08:14:00,29.5,26.7,30.22,West,268,0.0,0.0,89,0.00,,,0.00,VWS V14.01,2013-11-05 14:14:00,
2013-11-05 08:19:00,29.7,26.9,30.22,West,268,0.0,0.0,89,0.00,,,0.00,VWS V14.01,2013-11-05 14:19:00,
2013-11-05 08:24:00,29.9,27.1,30.22,West,267,0.0,0.0,89,0.00,,,0.00,VWS V14.01,2013-11-05 14:24:00,
2013-11-05 08:29:00,30.2,27.4,30.23,West,268,0.0,0.0,89,0.00,,,0.00,VWS V14.01,2013-11-05 14:29:00,
2013-11-05 08:34:00,30.4,27.3,30.23,West,268,0.0,0.0,88,0.00,,,0.00,VWS V14.01,2013-11-05 14:34:00,
2013-11-05 08:39:00,30.6,27.5,30.24,West,268,0.0,0.0,88,0.00,,,0.00,VWS V14.01,2013-11-05 14:39:00,
2013-11-05 08:44:00,30.8,27.7,30.24,West,268,0.0,0.0,88,0.00,,,0.00,VWS V14.01,2013-11-05 14:44:00,
2013-11-05 08:49:00,31.0,27.9,30.24,West,267,0.0,0.0,88,0.01,,,0.01,VWS V14.01,2013-11-05 14:49:00,
2013-11-05 08:54:00,31.2,28.1,30.24,West,268,0.0,0.0,88,0.01,,,0.01,VWS V14.01,2013-11-05 14:54:00,
2013-11-05 08:59:00,31.4,28.3,30.25,West,268,0.0,1.0,88,0.01,,,0.01,VWS V14.01,2013-11-05 14:59:00,
2013-11-05 09:04:00,31.7,28.6,30.25,West,268,0.0,1.0,88,0.01,,,0.01,VWS V14.01,2013-11-05 15:04:00,
2013-11-05 09:09:00,32.0,28.9,30.25,West,268,0.0,1.0,88,0.01,,,0.01,VWS V14.01,2013-11-05 15:09:00,
2013-11-05 09:14:00,32.2,29.0,30.25,West,268,0.0,1.0,88,0.01,,,0.01,VWS V14.01,2013-11-05 15:14:00,
2013-11-05 09:20:00,32.4,29.2,30.25,West,268,0.0,1.0,88,0.01,,,0.01,VWS V14.01,2013-11-05 15:20:00,
2013-11-05 09:25:00,32.7,29.5,30.25,West,268,0.0,1.0,88,0.01,,,0.01,VWS V14.01,2013-11-05 15:25:00,
2013-11-05 09:30:00,33.0,29.8,30.25,West,268,0.0,1.0,88,0.01,,,0.01,VWS V14.01,2013-11-05 15:30:00,
2013-11-05 09:35:00,33.3,30.1,30.25,West,267,0.0,0.0,88,0.01,,,0.01,VWS V14.01,2013-11-05 15:35:00,
2013-11-05 09:40:00,33.6,30.4,30.25,West,267,0.0,0.0,88,0.01,,,0.01,VWS V14.01,2013-11-05 15:40:00,
2013-11-05 09:45:00,33.9,30.7,30.25,West,267,0.0,0.0,88,0.01,,,0.01,VWS V14.01,2013-11-05 15:45:00,
2013-11-05 09:50:00,34.1,30.9,30.25,West,268,0.0,1.0,88,0.01,,,0.01,VWS V14.01,2013-11-05 15:50:00,
2013-11-05 09:55:00,34.4,31.2,30.25,West,267,0.0,1.0,88,0.01,,,0.01,VWS V14.01,2013-11-05 15:55:00,
2013-11-05 10:00:00,34.7,31.5,30.25,West,268,0.0,1.0,88,0.01,,,0.01,VWS V14.01,2013-11-05 16:00:00,
2013-11-05 10:05:00,35.0,32.1,30.25,West,268,0.0,1.0,89,0.00,,,0.01,VWS V14.01,2013-11-05 16:05:00,
2013-11-05 10:10:00,35.2,32.6,30.25,West,268,0.0,1.0,90,0.00,,,0.01,VWS V14.01,2013-11-05 16:10:00,
2013-11-05 10:15:00,35.5,33.1,30.25,West,267,0.0,1.0,91,0.00,,,0.01,VWS V14.01,2013-11-05 16:15:00,
2013-11-05 10:20:00,35.9,33.5,30.25,West,267,0.0,1.0,91,0.00,,,0.01,VWS V14.01,2013-11-05 16:20:00,
2013-11-05 10:25:00,36.4,34.3,30.25,West,267,1.0,1.0,92,0.00,,,0.01,VWS V14.01,2013-11-05 16:25:00,
2013-11-05 10:30:00,37.0,34.9,30.25,West,267,0.0,0.0,92,0.00,,,0.01,VWS V14.01,2013-11-05 16:30:00,
2013-11-05 10:35:00,37.5,35.4,30.25,West,266,0.0,1.0,92,0.00,,,0.01,VWS V14.01,2013-11-05 16:35:00,
2013-11-05 10:40:00,38.0,35.9,30.25,West,267,0.0,1.0,92,0.00,,,0.01,VWS V14.01,2013-11-05 16:40:00,
2013-11-05 10:45:00,38.2,35.5,30.25,West,267,0.0,1.0,90,0.00,,,0.01,VWS V14.01,2013-11-05 16:45:00,
2013-11-05 10:50:00,38.3,35.6,30.25,West,267,0.0,1.0,90,0.00,,,0.01,VWS V14.01,2013-11-05 16:50:00,
2013-11-05 10:55:00,38.5,35.8,30.25,West,267,0.0,1.0,90,0.00,,,0.01,VWS V14.01,2013-11-05 16:55:00,
2013-11-05 11:00:00,38.7,35.2,30.26,West,266,0.0,0.0,87,0.00,,,0.01,VWS V14.01,2013-11-05 17:00:00,
2013-11-05 11:06:00,39.0,35.2,30.25,West,267,0.0,0.0,86,0.00,,,0.01,VWS V14.01,2013-11-05 17:06:00,
2013-11-05 11:11:00,39.5,36.0,30.25,West,266,1.0,1.0,87,0.00,,,0.01,VWS V14.01,2013-11-05 17:11:00,
2013-11-05 11:16:00,40.0,35.9,30.24,West,266,1.0,1.0,85,0.00,,,0.01,VWS V14.01,2013-11-05 17:16:00,
2013-11-05 11:21:00,40.5,35.1,30.25,West,266,0.0,1.0,81,0.00,,,0.01,VWS V14.01,2013-11-05 17:21:00,
2013-11-05 11:26:00,41.0,35.9,30.24,West,281,0.0,2.0,82,0.00,,,0.01,VWS V14.01,2013-11-05 17:26:00,
2013-11-05 11:31:00,41.3,34.7,30.24,West,280,2.0,2.0,77,0.00,,,0.01,VWS V14.01,2013-11-05 17:31:00,
2013-11-05 11:36:00,41.6,34.9,30.24,West,280,0.0,2.0,77,0.00,,,0.01,VWS V14.01,2013-11-05 17:36:00,
2013-11-05 11:41:00,42.0,34.7,30.24,West,280,0.0,2.0,75,0.00,,,0.01,VWS V14.01,2013-11-05 17:41:00,
2013-11-05 11:46:00,42.3,34.3,30.24,West,280,0.0,2.0,73,0.00,,,0.01,VWS V14.01,2013-11-05 17:46:00,
2013-11-05 11:51:00,42.6,34.2,30.23,West,280,0.0,2.0,72,0.00,,,0.01,VWS V14.01,2013-11-05 17:51:00,
2013-11-05 11:56:00,42.7,33.6,30.23,West,280,0.0,2.0,70,0.00,,,0.01,VWS V14.01,2013-11-05 17:56:00,
2013-11-05 12:01:00,42.9,33.8,30.23,West,280,0.0,0.0,70,0.00,,,0.01,VWS V14.01,2013-11-05 18:01:00,
2013-11-05 12:06:00,42.9,31.6,30.23,NE,56,0.0,3.0,64,0.00,,,0.01,VWS V14.01,2013-11-05 18:06:00,
2013-11-05 12:11:00,43.0,32.1,30.22,North,354,1.0,3.0,65,0.00,,,0.01,VWS V14.01,2013-11-05 18:11:00,
2013-11-05 12:16:00,43.0,31.3,30.22,NE,35,0.0,3.0,63,0.00,,,0.01,VWS V14.01,2013-11-05 18:16:00,
2013-11-05 12:21:00,43.0,31.7,30.21,NE,38,2.0,3.0,64,0.00,,,0.01,VWS V14.01,2013-11-05 18:21:00,
2013-11-05 12:26:00,43.1,32.9,30.20,East,89,1.0,4.0,67,0.00,,,0.01,VWS V14.01,2013-11-05 18:26:00,
2013-11-05 12:31:00,43.2,33.0,30.20,NW,314,1.0,2.0,67,0.00,,,0.01,VWS V14.01,2013-11-05 18:31:00,
2013-11-05 12:37:00,43.3,31.6,30.20,NW,314,0.0,4.0,63,0.00,,,0.01,VWS V14.01,2013-11-05 18:37:00,
2013-11-05 12:42:00,43.3,32.3,30.20,NW,315,0.0,4.0,65,0.00,,,0.01,VWS V14.01,2013-11-05 18:42:00,
2013-11-05 12:47:00,43.3,31.6,30.20,WNW,289,0.0,4.0,63,0.00,,,0.01,VWS V14.01,2013-11-05 18:47:00,
2013-11-05 12:52:00,43.3,30.0,30.20,ENE,75,0.0,4.0,59,0.00,,,0.01,VWS V14.01,2013-11-05 18:52:00,
2013-11-05 12:57:00,43.3,30.0,30.19,ENE,75,0.0,4.0,59,0.00,,,0.01,VWS V14.01,2013-11-05 18:57:00,
2013-11-05 13:02:00,43.3,30.0,30.19,SE,140,0.0,2.0,59,0.00,,,0.01,VWS V14.01,2013-11-05 19:02:00,
2013-11-05 13:07:00,43.3,30.4,30.19,WSW,256,0.0,2.0,60,0.00,,,0.01,VWS V14.01,2013-11-05 19:07:00,
2013-11-05 13:12:00,43.3,28.2,30.19,NE,43,0.0,2.0,55,0.00,,,0.01,VWS V14.01,2013-11-05 19:12:00,
2013-11-05 13:17:00,43.3,29.1,30.18,NE,39,0.0,2.0,57,0.00,,,0.01,VWS V14.01,2013-11-05 19:17:00,
2013-11-05 13:22:00,43.4,29.6,30.18,NE,41,0.0,2.0,58,0.00,,,0.01,VWS V14.01,2013-11-05 19:22:00,
2013-11-05 13:27:00,43.4,29.6,30.18,NE,41,0.0,2.0,58,0.00,,,0.01,VWS V14.01,2013-11-05 19:27:00,
2013-11-05 13:32:00,43.4,30.9,30.17,NE,36,0.0,1.0,61,0.00,,,0.01,VWS V14.01,2013-11-05 19:32:00,
2013-11-05 13:37:00,43.4,30.5,30.17,NNW,337,0.0,2.0,60,0.00,,,0.01,VWS V14.01,2013-11-05 19:37:00,
2013-11-05 13:43:00,43.4,30.5,30.16,NNE,25,0.0,2.0,60,0.00,,,0.01,VWS V14.01,2013-11-05 19:43:00,
2013-11-05 13:48:00,43.4,30.9,30.16,East,96,0.0,2.0,61,0.00,,,0.01,VWS V14.01,2013-11-05 19:48:00,
2013-11-05 13:53:00,43.4,30.5,30.16,East,95,0.0,2.0,60,0.00,,,0.01,VWS V14.01,2013-11-05 19:53:00,
2013-11-05 13:58:00,43.4,31.3,30.16,East,90,0.0,2.0,62,0.00,,,0.01,VWS V14.01,2013-11-05 19:58:00,
2013-11-05 14:03:00,43.4,30.0,30.15,East,84,0.0,2.0,59,0.00,,,0.01,VWS V14.01,2013-11-05 20:03:00,
2013-11-05 14:08:00,43.3,30.8,30.15,ENE,66,2.0,3.0,61,0.00,,,0.01,VWS V14.01,2013-11-05 20:08:00,
2013-11-05 14:13:00,43.2,30.7,30.15,East,82,0.0,3.0,61,0.00,,,0.01,VWS V14.01,2013-11-05 20:13:00,
2013-11-05 14:18:00,43.2,30.7,30.15,NE,54,0.0,3.0,61,0.00,,,0.01,VWS V14.01,2013-11-05 20:18:00,
2013-11-05 14:23:00,43.1,29.8,30.15,NNW,345,1.0,4.0,59,0.00,,,0.01,VWS V14.01,2013-11-05 20:23:00,
2013-11-05 14:28:00,43.0,28.8,30.15,ENE,75,0.0,4.0,57,0.00,,,0.01,VWS V14.01,2013-11-05 20:28:00,
2013-11-05 14:33:00,42.9,29.2,30.15,ENE,74,0.0,1.0,58,0.00,,,0.01,VWS V14.01,2013-11-05 20:33:00,
2013-11-05 14:38:00,42.8,29.9,30.15,ENE,78,0.0,3.0,60,0.00,,,0.01,VWS V14.01,2013-11-05 20:38:00,
2013-11-05 14:43:00,42.7,29.0,30.15,NNW,339,1.0,3.0,58,0.00,,,0.01,VWS V14.01,2013-11-05 20:43:00,
2013-11-05 14:48:00,42.6,28.9,30.15,NNE,31,0.0,3.0,58,0.00,,,0.01,VWS V14.01,2013-11-05 20:48:00,
2013-11-05 14:53:00,42.5,28.4,30.15,North,354,0.0,3.0,57,0.00,,,0.01,VWS V14.01,2013-11-05 20:53:00,
2013-11-05 14:59:00,42.3,29.8,30.15,NE,35,0.0,3.0,61,0.00,,,0.01,VWS V14.01,2013-11-05 20:59:00,
2013-11-05 15:04:00,42.2,31.3,30.15,NE,35,0.0,1.0,65,0.00,,,0.01,VWS V14.01,2013-11-05 21:04:00,
2013-11-05 15:09:00,42.1,30.8,30.15,NE,35,0.0,1.0,64,0.00,,,0.01,VWS V14.01,2013-11-05 21:09:00,
2013-11-05 15:14:00,41.9,30.2,30.14,NE,37,0.0,1.0,63,0.00,,,0.01,VWS V14.01,2013-11-05 21:14:00,
2013-11-05 15:19:00,41.7,28.9,30.14,East,80,0.0,3.0,60,0.00,,,0.01,VWS V14.01,2013-11-05 21:19:00,
2013-11-05 15:24:00,41.6,28.8,30.14,ENE,57,1.0,3.0,60,0.00,,,0.01,VWS V14.01,2013-11-05 21:24:00,
2013-11-05 15:29:00,41.5,28.3,30.14,ENE,61,1.0,4.0,59,0.00,,,0.01,VWS V14.01,2013-11-05 21:29:00,
2013-11-05 15:34:00,41.4,28.6,30.14,ENE,75,1.0,3.0,60,0.00,,,0.01,VWS V14.01,2013-11-05 21:34:00,
2013-11-05 15:39:00,41.3,28.9,30.13,NE,52,1.0,3.0,61,0.00,,,0.01,VWS V14.01,2013-11-05 21:39:00,
2013-11-05 15:44:00,41.2,30.3,30.13,NE,50,0.0,3.0,65,0.00,,,0.01,VWS V14.01,2013-11-05 21:44:00,
2013-11-05 15:49:00,41.0,29.4,30.12,ESE,114,0.0,3.0,63,0.00,,,0.01,VWS V14.01,2013-11-05 21:49:00,
2013-11-05 15:54:00,40.9,29.3,30.12,ENE,76,1.0,3.0,63,0.00,,,0.01,VWS V14.01,2013-11-05 21:54:00,
2013-11-05 15:59:00,40.8,30.0,30.11,NW,310,1.0,4.0,65,0.00,,,0.01,VWS V14.01,2013-11-05 21:59:00,
2013-11-05 16:04:00,40.7,30.2,30.11,NNE,12,2.0,3.0,66,0.00,,,0.01,VWS V14.01,2013-11-05 22:04:00,
2013-11-05 16:09:00,40.6,30.1,30.11,WNW,299,2.0,5.0,66,0.00,,,0.01,VWS V14.01,2013-11-05 22:09:00,
2013-11-05 16:15:00,40.4,29.6,30.11,North,8,1.0,5.0,65,0.00,,,0.01,VWS V14.01,2013-11-05 22:15:00,
2013-11-05 16:20:00,40.2,30.1,30.11,NNE,17,0.0,5.0,67,0.00,,,0.01,VWS V14.01,2013-11-05 22:20:00,
2013-11-05 16:25:00,40.1,30.0,30.12,NE,53,1.0,5.0,67,0.00,,,0.01,VWS V14.01,2013-11-05 22:25:00,
2013-11-05 16:30:00,39.9,29.9,30.12,ENE,65,1.0,5.0,67,0.00,,,0.01,VWS V14.01,2013-11-05 22:30:00,
2013-11-05 16:35:00,39.8,29.8,30.12,East,89,1.0,8.0,67,0.00,,,0.01,VWS V14.01,2013-11-05 22:35:00,
2013-11-05 16:40:00,39.6,29.9,30.12,North,350,2.0,8.0,68,0.00,,,0.01,VWS V14.01,2013-11-05 22:40:00,
2013-11-05 16:45:00,39.5,29.5,30.12,NE,50,0.0,8.0,67,0.00,,,0.01,VWS V14.01,2013-11-05 22:45:00,
2013-11-05 16:50:00,39.4,29.4,30.12,ENE,66,1.0,8.0,67,0.00,,,0.01,VWS V14.01,2013-11-05 22:50:00,
2013-11-05 16:55:00,39.3,28.9,30.12,NE,46,0.0,8.0,66,0.00,,,0.01,VWS V14.01,2013-11-05 22:55:00,
2013-11-05 17:00:00,39.2,28.8,30.12,North,354,0.0,0.0,66,0.00,,,0.01,VWS V14.01,2013-11-05 23:00:00,
2013-11-05 17:05:00,39.1,28.7,30.12,East,81,2.0,3.0,66,0.00,,,0.01,VWS V14.01,2013-11-05 23:05:00,
2013-11-05 17:10:00,39.1,28.3,30.12,North,359,1.0,3.0,65,0.00,,,0.01,VWS V14.01,2013-11-05 23:10:00,
2013-11-05 17:15:00,39.0,27.5,30.12,NE,37,2.0,5.0,63,0.00,,,0.01,VWS V14.01,2013-11-05 23:15:00,
2013-11-05 17:20:00,38.8,27.3,30.12,ENE,65,0.0,5.0,63,0.00,,,0.01,VWS V14.01,2013-11-05 23:20:00,
2013-11-05 17:26:00,38.7,28.3,30.12,NNW,329,0.0,5.0,66,0.00,,,0.01,VWS V14.01,2013-11-05 23:26:00,
2013-11-05 17:31:00,38.6,27.9,30.12,West,267,0.0,2.0,65,0.00,,,0.01,VWS V14.01,2013-11-05 23:31:00,
2013-11-05 17:36:00,38.4,28.8,30.11,East,91,1.0,3.0,68,0.00,,,0.01,VWS V14.01,2013-11-05 23:36:00,
2013-11-05 17:41:00,38.2,29.3,30.10,ENE,58,1.0,3.0,70,0.00,,,0.01,VWS V14.01,2013-11-05 23:41:00,
2013-11-05 17:46:00,38.0,28.0,30.11,East,88,2.0,3.0,67,0.00,,,0.01,VWS V14.01,2013-11-05 23:46:00,
2013-11-05 17:51:00,37.8,28.6,30.11,ENE,75,0.0,4.0,69,0.00,,,0.01,VWS V14.01,2013-11-05 23:51:00,
2013-11-05 17:56:00,37.7,29.2,30.11,East,87,0.0,4.0,71,0.00,,,0.01,VWS V14.01,2013-11-05 23:56:00,
2013-11-05 18:01:00,37.3,30.1,30.11,NW,316,2.0,4.0,75,0.00,,,0.01,VWS V14.01,2013-11-06 00:01:00,
2013-11-05 18:06:00,36.8,30.9,30.11,ENE,57,3.0,4.0,79,0.00,,,0.01,VWS V14.01,2013-11-06 00:06:00,
2013-11-05 18:30:00,34.8,31.3,30.09,NE,45,1.0,6.0,87,0.00,,,0.01,VWS V14.01,2013-11-06 00:30:00,
2013-11-05 19:00:00,33.8,31.2,30.09,ENE,68,1.0,5.0,90,0.00,,,0.01,VWS V14.01,2013-11-06 01:00:00,
2013-11-05 19:30:00,33.1,30.8,30.07,ENE,68,0.0,4.0,91,0.00,,,0.01,VWS V14.01,2013-11-06 01:30:00,
2013-11-05 20:00:00,32.5,30.2,30.07,ENE,68,0.0,3.0,91,0.00,,,0.01,VWS V14.01,2013-11-06 02:00:00,
2013-11-05 20:30:00,32.3,30.0,30.05,ENE,68,0.0,4.0,91,0.00,,,0.01,VWS V14.01,2013-11-06 02:30:00,
2013-11-05 21:00:00,32.4,30.1,30.05,NW,315,0.0,7.0,91,0.00,,,0.01,VWS V14.01,2013-11-06 03:00:00,
2013-11-05 21:30:00,32.3,30.0,30.06,NNW,338,0.0,5.0,91,0.00,,,0.01,VWS V14.01,2013-11-06 03:30:00,
2013-11-05 22:00:00,32.3,30.0,30.06,NW,315,0.0,2.0,91,0.00,,,0.01,VWS V14.01,2013-11-06 04:00:00,
2013-11-05 22:30:00,32.3,30.0,30.06,WNW,292,0.0,2.0,91,0.01,,,0.02,VWS V14.01,2013-11-06 04:30:00,
2013-11-05 23:00:00,32.3,29.7,30.06,NW,315,0.0,2.0,90,0.01,,,0.02,VWS V14.01,2013-11-06 05:00:00,
2013-11-05 23:30:00,32.3,30.0,30.05,WNW,292,0.0,4.0,91,0.01,,,0.02,VWS V14.01,2013-11-06 05:30:00,